OBJECT U, 57184

Orbit data source: Space-Track

You're viewing an uncataloged RSO

Recently launched and/or uncataloged RSOs may have evolving metadata. Metadata may include the following, but is not limited to: Owner, Manufacturer, Bus, Motor, and Mission.

OBJECT U, 57184 is a satellite in SSO that was launched on Tue, 27 Jun 2023 UTC via a SOYUZ-2-1B launch vehicle from the Vostochny Cosmodrome (VOSTO). Unknown objects in Earth's orbit typically refer to objects detected orbiting the Earth but have not yet been identified or cataloged. These objects could be anything from previously untracked satellites, spent rocket stages, debris from satellite collisions, or even natural meteoroids temporarily captured by Earth's gravity.

Loading next visibility...
Identifier
57184, 2023-091U
Orbit
SSO
Country
Flag of TBDTBD
Related business
Manufacturer
NILAKT DOSAAF
Mission
Operational Amateur Science
Bus & Motor
CUBESAT 3U, Unknown motor
Mass
5 kg wet, 5 kg dry
Launch date (UTC)
2023-06-27 (3 years ago)
Launch vehicle
SOYUZ-2-1B
Launch site
Vostochny Cosmodrome (VOSTO)
Object type
Unknown
Shape & HBR
Box, 0.2 m
Radar Cross Section
0.035 m², Medium (>0.1 m² and < 1m²)

Expand to show TLE details & history
Last TLE update: 9 hours ago

TLE from 9 hours ago
0 OBJECT U
1 57184U 23091U   26256.89843870  .00003897  00000-0  18606-3 0  9999
2 57184  97.4978 314.6066 0011601 156.3868 203.7902 15.19593623177421
Epoch: 2026-09-13T21:33Z
TLE epoch observation values (Epoch: 2026-09-13T21:33:45.103Z)
Latitude
0.00002°
Longitude
-1.71781°
Altitude
517.467 km
Speed
7.601 km/s
True Right ascension
20h 58m 25s
True Declination
0° 00' 00"
Sunlit
Object was in full shadow at epoch
Visualization orbit readout
Latitude
Unknown
Longitude
Unknown
Altitude
Unknown
Speed
Unknown
Apparent Right ascension
Unknown
Apparent Declination
Unknown
Sunlit
N/A
Visualization observer readout
Local Sidereal Time
22:41:27
Azimuth
Unknown
Elevation
Unknown
Doppler factor
Unknown
Orbital elements
Apogee altitude
512.022 km
Perigee altitude
496.054 km
Semi-major axis
6,882.175 km
Eccentricity
0.00116
Inclination
97.4978°
RAAN
314.6066°
Arg. of periapsis
156.3868°
True anomaly
203.73665°
Mean anomaly
203.7902°
Eccentric anomaly
203.76342°
Mean motion
3.8015 °/min
Orbital period
94.7 mins
BSTAR
0.00018606
Loading maneuver chart data...
Computing Atmospheric mass density...
Loading historical data...
Loading historical data...
Loading historical data...
Loading historical data...
Loading historical data...
Loading historical data...
Loading historical data...

Documentation

Showing up to 5 results
|